SCP
0 0 0 0 0 0 0 0 0 0 0 0 0 0 0 0 0 0 0 0 0 0 1 1 1 1 0 0 0 0 0 0 0 0 0 0 0 0 0 0 0 0 0
0 0 0 0 0 0 0 0 0 0 0 0 0 0 0 0 0 0 0 0 0 0 1 1 1 1 1 0 0 0 0 0 0 0 0 0 0 0 0 0 0 0 0
0 0 0 0 0 0 0 0 0 0 0 0 0 0 0 0 0 0 0 0 0 0 0 1 1 1 1 1 1 0 0 0 0 0 0 0 0 0 0 0 0 0 0
0 0 0 0 0 0 0 0 0 0 0 0 0 0 0 0 0 0 0 0 0 0 0 0 0 0 0 0 0 0 0 0 0 0 0 0 0 0 0 0 0 0 0
0 0 0 0 0 0 0 0 0 0 0 0 0 0 0 0 0 0 0 0 0 0 0 0 0 0 0 0 0 0 0 0 0 0 0 0 0 0 0 0 0 0 0
0 0 0 0 0 0 0 0 0 0 0 0 0 0 0 0 0 0 0 0 0 0 0 0 0 0 0 0 0 0 0 0 0 0 0 0 0 0 0 0 0 0 0
0 0 0 0 0 0 0 0 0 0 0 0 0 0 0 0 0 0 0 0 0 0 0 0 0 0 0 0 0 0 0 0 0 0 0 0 0 0 0 0 0 0 0
0 0 0 0 0 0 0 0 0 0 0 0 0 0 0 0 0 0 0 0 0 0 0 0 0 0 0 0 0 0 0 0 0 0 0 0 0 0 0 0 0 0 0
0 0 0 0 0 0 0 0 0 0 0 0 0 0 0 0 0 0 0 0 0 0 0 0 0 0 0 0 0 0 0 0 0 0 0 0 0 0 0 0 0 0 0
0 0 0 0 0 0 0 0 0 0 0 0 0 0 0 0 0 0 0 0 0 0 0 0 0 0 0 0 0 0 0 0 0 0 0 0 0 0 0 0 0 0 0
0 0 0 0 0 0 0 0 0 0 0 0 0 0 0 0 0 0 0 0 0 0 0 0 0 0 0 0 0 0 0 0 0 0 0 0 0 0 0 0 0 0 0
0 0 0 0 0 0 0 0 0 0 0 0 0 0 0 0 0 0 0 0 0 0 0 0 0 0 0 0 0 0 0 0 0 0 0 0 0 0 0 0 0 0 0
0 0 0 0 0 0 0 0 0 0 0 0 0 0 0 0 0 0 0 0 0 0 0 0 0 0 0 0 0 0 0 0 0 0 0 0 0 0 0 0 0 0 0
0 0 0 0 0 0 0 0 0 0 0 0 0 0 0 0 0 0 0 0 0 0 0 0 0 0 0 0 0 0 0 0 0 0 -0 -0 -0 0 0 0 0 0 0
0 0 0 0 0 0 0 0 0 0 0 0 0 0 0 0 0 0 0 0 0 0 0 0 0 0 0 0 0 0 0 0 0 -0 -0 -0 -0 -0 -0 0 0 0 0
0 0 0 0 0 0 0 0 0 0 0 0 0 0 0 0 0 0 0 0 0 0 0 0 0 0 0 0 0 0 0 0 0 -0 -0 -0 -0 -0 0 0 0 0 0
0 0 0 0 0 0 0 0 0 0 0 0 0 0 0 0 0 0 0 0 0 0 0 0 0 0 0 0 0 0 0 0 0 0 0 0 0 0 0 0 0 0 0
0 0 0 0 0 0 0 0 0 0 0 0 0 0 0 0 0 0 0 0 0 0 0 0 0 0 0 0 0 0 0 0 0 0 0 0 0 0 0 0 0 0 0
0 0 0 0 0 0 0 0 0 0 0 0 0 0 0 0 0 0 0 0 0 0 0 0 0 0 0 0 0 0 0 0 0 0 0 0 0 0 0 0 0 0 0
0 0 0 0 0 0 0 0 0 0 0 0 0 0 0 0 0 0 0 0 0 0 0 0 0 0 0 0 0 0 0 0 0 0 0 0 0 0 0 0 0 0 0
0 0 0 0 0 0 0 0 0 0 0 0 0 0 0 0 0 0 0 0 0 0 0 0 0 0 0 0 0 0 0 0 0 0 0 0 0 0 0 0 0 0 0
0 0 0 0 0 0 0 0 0 0 0 0 0 0 0 0 0 0 0 0 0 0 0 0 0 0 0 0 0 0 0 0 0 0 0 0 0 0 0 0 0 0 0
0 0 0 0 0 0 0 0 0 0 0 0 0 0 0 0 0 0 0 0 0 0 0 0 0 0 0 0 0 0 0 0 0 0 0 0 0 0 0 0 0 0 0
0 0 0 0 0 0 0 0 0 0 0 0 0 0 0 0 0 0 0 0 0 0 0 0 0 0 0 0 0 0 0 0 0 0 0 0 0 0 0 0 0 0 0
0 0 0 0 0 0 0 0 0 0 0 0 0 0 0 0 0 0 0 0 0 0 0 0 0 0 0 0 0 0 0 0 0 0 0 0 0 0 0 0 0 0 0
0 0 0 0 0 0 0 0 0 0 0 0 0 0 0 0 0 0 0 0 0 0 0 0 0 0 0 0 0 0 0 0 0 0 0 0 0 0 0 0 0 0 0
Wind_Speed
3 3 2 2 2 2 2 2 1 1 2 2 2 2 2 2 3 3 2 6 8 10 12 12 13 13 13 13 13 13 13 13 12 12 11 11 10 10 10 9 9 9 8
4 3 3 2 2 2 2 2 1 1 1 1 1 1 1 1 2 2 2 3 5 6 9 11 11 12 13 13 12 12 12 12 11 11 10 10 10 10 10 9 9 9 8
4 3 3 3 3 2 3 2 1 1 0 0 1 1 1 1 1 1 1 1 2 3 4 6 8 9 10 11 11 11 11 11 10 9 9 9 9 9 8 8 8 7 7
5 4 3 3 2 2 2 2 1 1 0 0 1 2 2 2 2 2 2 2 2 2 2 3 3 5 7 8 9 9 8 8 8 8 8 8 7 7 7 7 7 6 6
5 4 3 2 2 2 2 2 1 1 1 1 1 2 2 2 3 3 3 4 4 3 3 4 4 3 2 3 4 5 5 5 6 6 6 6 5 5 5 5 5 5 5
4 4 3 3 3 2 2 2 2 2 2 1 2 3 3 3 4 4 5 5 5 6 5 5 4 4 5 3 2 1 2 3 3 3 4 4 4 3 3 3 3 4 5
4 4 3 3 3 2 3 3 3 3 2 1 2 2 2 4 5 5 4 5 6 6 7 7 5 5 4 7 6 4 2 1 1 1 2 2 2 2 2 1 1 2 3
5 5 5 4 3 3 4 3 2 2 2 2 1 1 0 1 4 5 5 5 6 6 7 8 8 7 5 4 8 9 9 7 6 5 4 4 5 5 5 4 4 4 4
7 7 7 5 5 4 4 4 2 2 2 2 3 1 1 1 1 3 6 6 7 6 6 6 8 8 7 6 6 11 14 13 12 9 8 8 8 7 6 5 5 5 5
9 8 8 8 7 6 6 5 5 3 3 2 2 3 2 2 1 1 3 4 6 7 7 6 7 7 7 6 8 12 13 13 13 13 12 11 10 8 8 7 6 6 6
9 9 9 8 8 7 7 8 7 7 5 4 3 2 3 4 3 2 2 2 4 5 6 6 5 6 7 6 5 9 12 12 12 12 11 11 10 9 8 8 8 8 9
7 10 10 9 9 8 9 8 9 10 8 9 7 6 4 3 3 3 2 2 2 3 5 5 5 5 5 5 7 10 10 10 9 9 8 8 9 9 9 9 10 10 10
7 9 9 9 9 9 9 9 10 10 10 10 8 6 6 5 3 2 3 2 2 2 3 3 4 5 5 4 4 9 7 8 7 7 7 8 9 9 9 10 10 11 11
8 9 10 10 10 10 9 9 9 9 9 9 9 8 6 6 5 4 2 2 2 2 3 3 2 4 4 4 4 7 4 7 7 7 8 8 8 9 9 10 10 11 11
9 10 11 11 10 10 9 9 9 8 8 8 8 8 6 5 5 5 4 2 2 2 1 3 2 3 4 3 5 4 4 7 8 8 9 9 9 9 10 10 11 11 12
10 11 11 10 10 9 9 9 8 7 8 7 6 8 7 5 5 5 5 4 3 2 1 1 2 3 4 4 6 5 5 9 9 10 10 9 9 9 10 10 11 11 11
10 10 10 10 9 8 8 8 8 8 8 7 6 7 7 5 5 5 4 4 4 2 1 1 2 3 3 5 6 5 5 5 5 10 11 10 9 9 9 10 10 10 10
9 9 9 9 9 8 8 8 8 7 7 7 6 6 6 4 5 4 4 4 3 2 1 2 2 3 3 4 5 6 5 5 5 9 10 10 9 8 8 8 8 8 8
9 9 9 9 8 7 7 6 6 6 6 5 5 5 4 4 4 3 3 3 2 2 1 1 2 2 3 3 4 4 5 4 6 6 7 7 8 9 8 8 8 7 6
9 8 8 8 7 7 6 6 6 5 5 5 4 4 3 3 3 3 3 3 2 2 2 2 2 3 3 3 3 3 5 5 5 4 5 7 7 8 8 8 7 6 6
8 7 7 7 6 6 5 5 5 5 5 5 5 4 3 4 5 3 3 3 2 2 2 2 2 2 3 3 3 3 4 6 4 2 4 4 4 4 5 6 6 7 6
6 7 7 7 7 5 7 7 5 4 4 4 4 4 4 4 6 7 7 6 3 2 2 2 2 3 4 4 3 3 3 4 4 2 4 5 3 4 4 4 6 7 7
5 6 5 6 6 6 8 8 7 4 4 3 3 4 4 4 6 6 7 8 6 5 5 3 3 4 4 3 4 5 4 3 4 4 3 4 3 4 4 4 7 7 8
4 3 4 4 5 6 8 8 7 4 3 3 3 3 3 5 5 7 6 7 6 5 4 3 5 7 7 7 5 4 4 5 6 3 2 3 3 4 4 3 5 7 8
3 3 3 4 5 5 8 7 5 3 3 4 4 4 4 5 8 8 5 6 7 5 4 5 7 8 9 9 5 2 3 3 4 2 0 2 3 4 3 3 4 6 8
2 3 4 4 4 4 7 7 5 2 3 4 4 4 5 7 9 7 3 3 5 6 7 8 6 6 4 4 1 2 2 2 2 3 1 2 3 3 4 3 3 4 5
Wind_Direction
183 188 196 201 206 195 196 207 232 255 263 267 263 251 245 239 243 239 246 242 232 230 228 220 215 215 215 216 216 214 211 210 207 205 203 201 198 197 198 197 196 196 195
183 186 195 201 210 203 197 198 214 242 262 269 295 297 267 248 259 264 267 270 259 244 233 226 222 221 220 218 217 217 215 214 212 210 207 205 201 199 200 199 197 197 195
184 183 189 200 206 190 181 171 162 146 235 318 341 343 359 10 2 323 319 313 306 285 256 238 229 226 223 220 218 217 215 211 210 209 209 207 207 204 203 200 201 202 203
179 174 185 198 182 161 164 152 152 141 129 63 16 5 11 18 22 10 9 4 355 346 335 308 260 238 230 227 222 214 209 205 203 205 206 207 207 204 202 200 201 200 198
172 167 177 176 157 152 151 152 141 143 135 91 64 36 19 16 16 20 27 25 25 23 16 11 5 349 274 239 233 224 215 208 207 208 206 205 203 201 201 200 201 201 203
145 144 142 135 134 134 128 124 120 99 95 92 74 54 33 24 28 28 28 29 30 31 29 23 17 19 18 359 332 288 240 228 223 212 197 193 190 185 182 201 218 219 221
106 111 113 107 107 114 116 122 122 103 80 76 88 63 49 50 47 35 30 33 33 33 37 35 32 28 25 30 30 32 25 354 310 259 219 194 155 121 97 69 323 270 264
77 86 86 87 81 85 75 68 87 107 82 52 101 126 86 32 44 38 38 40 36 34 39 39 39 37 32 31 43 47 46 44 43 38 41 50 65 67 57 36 13 347 326
72 74 75 74 67 70 72 59 54 109 119 69 48 100 151 198 77 45 41 43 41 39 36 36 41 37 37 36 36 47 52 49 44 38 41 44 39 37 25 14 358 344 332
70 70 71 72 67 62 60 53 48 50 88 96 62 43 57 80 138 117 53 38 43 41 36 34 35 34 34 38 44 49 51 48 46 42 39 39 36 28 19 4 345 336 333
63 67 70 72 72 67 65 62 59 57 60 66 60 44 45 44 43 95 96 42 41 34 32 32 33 31 31 34 40 49 50 48 44 38 32 27 21 14 6 356 349 341 334
69 67 71 70 71 70 67 66 67 66 66 68 63 55 51 48 38 60 87 63 47 29 26 30 33 27 25 23 34 42 42 38 33 26 17 8 0 353 347 340 334 329 326
75 68 71 71 71 70 70 69 70 66 64 67 65 62 57 48 34 49 82 82 60 29 15 21 22 18 18 15 16 19 22 18 10 1 354 349 342 337 332 326 321 317 314
81 77 75 73 70 69 71 69 69 67 64 65 63 61 59 46 42 43 61 89 75 37 27 5 349 3 360 357 359 3 355 351 345 338 332 327 323 319 316 313 309 305 301
84 78 77 75 71 70 70 72 72 69 69 66 64 63 60 47 46 46 50 60 101 80 19 344 336 337 342 339 344 341 331 326 326 322 318 312 309 306 304 305 304 300 298
82 80 76 73 70 67 69 73 73 69 70 63 64 65 58 48 47 44 46 46 54 97 77 314 306 309 321 335 340 336 319 322 320 318 314 309 307 307 307 307 305 302 302
79 79 77 75 72 68 68 73 71 69 69 63 59 64 59 53 52 43 44 47 43 50 66 318 296 304 308 321 330 329 319 315 311 311 311 310 309 309 308 308 309 308 306
78 78 77 75 72 68 64 69 72 67 69 65 59 61 55 56 52 43 43 43 38 36 42 333 312 311 303 311 318 319 322 323 316 308 310 312 314 317 318 316 315 314 313
77 72 72 71 68 66 64 64 70 69 67 65 62 64 57 57 47 35 35 31 21 24 23 321 308 302 298 312 323 319 323 320 320 317 316 322 325 326 325 324 326 324 326
77 72 70 70 67 64 62 62 66 65 63 58 54 55 54 53 44 23 21 12 6 6 356 333 310 304 299 306 311 323 330 331 325 326 328 325 326 329 332 334 334 339 342
77 76 74 67 61 60 57 67 64 65 59 52 43 35 30 42 39 23 10 351 349 339 332 327 319 314 313 318 324 321 315 321 311 323 321 321 328 333 341 342 343 349 351
71 70 67 65 57 52 55 68 75 65 55 48 32 12 7 24 14 12 6 357 334 292 297 296 298 305 299 295 297 310 316 326 317 333 322 310 323 327 339 345 349 354 358
74 70 64 64 57 42 49 58 66 70 57 43 27 10 4 3 3 353 348 348 340 312 258 237 268 279 285 289 305 306 304 300 290 306 318 299 316 322 337 345 352 360 359
80 74 66 61 56 40 44 51 58 59 52 33 16 3 352 345 351 348 338 337 332 321 293 256 254 271 273 278 265 268 294 296 283 269 258 290 314 318 323 325 343 355 355
79 74 72 63 55 31 32 43 50 40 33 16 4 360 353 344 338 346 343 337 334 332 324 304 280 278 281 283 265 239 272 302 318 317 290 294 310 314 308 307 329 345 347
96 89 74 62 58 37 26 36 41 32 22 1 349 352 358 349 339 344 337 330 330 326 335 339 338 336 328 331 311 228 255 284 307 306 313 304 314 329 320 311 318 334 343